Location: Arpaise
(41.0333°N, 14.7333°E)
Time: 08:08:40
(UTC+00:00)

H-2A ROCKET BODY - Pass Details

Date: 05 July 2020
Orbit: 243 x 15322 km, 28.6° (Epoch: 05 August)

Event Time Altitude Azimuth Distance (km) Brightness Sun altitude
Rises 19:15:33 0° 241° (WSW) 2,519 5.0 -6.9°
Reaches altitude 10° 19:17:11 10° 226° (SW) 2,019 4.3 -7.1°
Maximum altitude 19:21:04 28° 166° (SSE) 2,025 3.7 -7.7°
Drops below altitude 10° 19:32:12 10° 115° (ESE) 6,102 6.0 -9.3°
Enters shadow 19:36:08 - 112° (ESE) 7,535 6.5 -9.9°
